Inquirer Daily News

Weather

Get conditions and forecasts for any City, State, ZIP code or Country:  
Trenton, NJ
on Sunday, November 25, 2012

Sunday
Previous Day Next Day
Daily Summary
 ActualAverageRecord
Temperature
Mean Temperature °F 43°F  
Max Temperature 40°F 51°F 72°F (1979)
Min Temperature 28°F 35°F 19°F (2013)
Degree Days
Heating Degree Days 31 22  
Month to date heating degree days 553 462  
Since 1 July heating degree days 860 859  
Cooling Degree Days 0 0  
Month to date cooling degree days 0 0  
Year to date cooling degree days 1234 965  
Moisture
Dew Point 20°F   
Average Humidity 58    
Maximum Humidity 69    
Minimum Humidity 47    
Precipitation
Precipitation 0.00 in 0.12 in 2.31 in (1950)
Month to date precipitation 0.58 2.65  
Year to date precipitation 32.63 42.08  
Wind
Wind Speed 7 mph   
Max Wind Speed 17 mph   
Max Gust Speed 23 mph   
Visibility 10 miles   
Events     

Key: T is trace of precipitation, MM is missing value
Source: NWS Daily Summary
Time(EST)TemperatureDew PointHumidity Pressure Visibility Wind DirectionWind SpeedGust SpeedPrecipitationEvents Conditions
12:53 AM 36.0°F 19.9°F 52% 29.88 in 10.0 miles NW 12.7 mph - N/A   Scattered Clouds
1:53 AM 35.1°F 19.9°F 54% 29.89 in 10.0 miles NW 6.9 mph - N/A   Mostly Cloudy
2:53 AM 35.1°F 21.0°F 57% 29.91 in 10.0 miles WNW 4.6 mph - N/A   Overcast
3:53 AM 35.1°F 19.9°F 54% 29.91 in 10.0 miles NW 6.9 mph - N/A   Overcast
4:53 AM 35.1°F 17.1°F 48% 29.92 in 10.0 miles NW 8.1 mph 18.4 mph N/A   Clear
5:53 AM 35.1°F 17.1°F 48% 29.93 in 10.0 miles NW 6.9 mph - N/A   Clear
6:53 AM 34.0°F 19.0°F 54% 29.94 in 10.0 miles WNW 4.6 mph - N/A   Clear
7:53 AM 33.1°F 21.0°F 61% 29.95 in 10.0 miles SW 3.5 mph - N/A   Clear
8:53 AM 37.9°F 21.0°F 51% 29.94 in 10.0 miles WNW 8.1 mph - N/A   Clear
9:53 AM 37.9°F 19.9°F 48% 29.95 in 10.0 miles NW 15.0 mph 19.6 mph N/A   Mostly Cloudy
10:53 AM 39.0°F 21.0°F 49% 29.95 in 10.0 miles NW 13.8 mph 18.4 mph N/A   Overcast
11:53 AM 39.9°F 21.0°F 47% 29.93 in 10.0 miles West 12.7 mph 21.9 mph N/A   Mostly Cloudy
12:53 PM 39.0°F 21.0°F 49% 29.91 in 10.0 miles West 12.7 mph 23.0 mph N/A   Overcast
1:53 PM 39.0°F 21.0°F 49% 29.88 in 10.0 miles WNW 10.4 mph - N/A   Scattered Clouds
2:53 PM 39.0°F 21.0°F 49% 29.89 in 10.0 miles West 11.5 mph - N/A   Scattered Clouds
3:53 PM 37.0°F 19.9°F 50% 29.91 in 10.0 miles West 11.5 mph - N/A   Overcast
4:53 PM 35.1°F 21.0°F 57% 29.91 in 10.0 miles West 4.6 mph - N/A   Clear
5:53 PM 34.0°F 21.0°F 59% 29.92 in 10.0 miles West 6.9 mph - N/A   Clear
6:53 PM 33.1°F 21.0°F 61% 29.94 in 10.0 miles West 4.6 mph - N/A   Clear
7:53 PM 33.1°F 19.9°F 59% 29.95 in 10.0 miles Calm Calm - N/A   Clear
8:53 PM 32.0°F 19.9°F 61% 29.96 in 10.0 miles Calm Calm - N/A   Clear
9:53 PM 28.9°F 19.9°F 69% 29.96 in 10.0 miles Calm Calm - N/A   Clear
10:53 PM 28.9°F 19.9°F 69% 29.97 in 10.0 miles Calm Calm - N/A   Clear
11:53 PM 30.0°F 19.9°F 66% 29.97 in 9.0 miles Calm Calm - N/A   Clear
Astronomy
Sunrise:06:56 AM (EST) Moon Rise:02:51 PM (EST)11/25
Sunset:04:35 PM (EST) Moon Set:04:08 AM (EST)11/25
Moon Phase
Nov. 25 Nov. 28 Dec. 06 Dec. 13 Dec. 20

Copyright © 2014 The Weather Underground, Inc.